Location: Mascot Post Office (historical)
(40.2645°N, 99.5462°W)
Time: 01:45:28
(UTC+00:00)

CZ-2D R/B - Pass Details

Date: 14 July 2020
Orbit: 792 x 844 km, 98.7° (Epoch: 14 August)

Event Time Altitude Azimuth Distance (km) Brightness Sun altitude
Rises 09:06:32 0° 3° (N) 3,350 6.3 -19.8°
Reaches altitude 10° 09:09:04 10° 355° (N) 2,422 5.3 -19.6°
Maximum altitude 09:13:49 34° 292° (WNW) 1,346 3.1 -19.0°
Enters shadow 09:15:44 26° 255° (WSW) 1,573 3.2 -18.8°
